Location: Newark
(34.9471°N, 136.1778°E)
Time: 04:37:22
(UTC+00:00)

METEOR M2 - Pass Details

Date: 28 February 2020
Orbit: 818 x 828 km, 98.5° (Epoch: 04 April)

Event Time Altitude Azimuth Distance (km) Brightness Sun altitude
Exits shadow 11:12:22 21° 198° (SSW) 1,775 ? -30.0°
Maximum altitude 11:15:39 45° 261° (W) 1,115 ? -30.6°
Drops below altitude 10° 11:20:48 10° 333° (NNW) 2,436 ? -31.7°
Sets 11:23:16 0° 340° (NNW) 3,373 ? -32.2°
